FW4373 Weather Reports


Display with metric or nautical units.
time (UTC)temp
F
wind
direction
speed
MPH
gust
MPH
rain 1hr
in
rain 24hr
in
rain mn
in
humidity
%
barometer
mb
20260507203028 48 0 0.0 0.0 0.00 0.00 0.00 83 1016.8
20260507201536 49 0 0.0 0.0 0.00 0.00 0.00 81 1016.7
20260507200034 50 0 0.0 0.0 0.00 0.00 0.00 80 1016.3
20260507194526 52 0 0.0 0.0 0.00 0.00 0.00 77 1016.2
20260507193028 53 0 0.0 0.0 0.00 0.00 0.00 74 1016.0
20260507191527 54 0 0.0 0.0 0.00 0.00 0.00 72 1015.9
20260507190028 55 0 0.0 1.0 0.00 0.00 0.00 71 1015.8
20260507184527 56 0 0.0 0.0 0.00 0.00 0.00 68 1015.8
20260507183032 56 0 0.0 1.0 0.00 0.00 0.00 69 1015.8
20260507181528 56 0 0.0 0.0 0.00 0.00 0.00 69 1015.7
20260507180039 56 0 0.0 1.0 0.00 0.00 0.00 68 1015.6
20260507174526 56 0 0.0 0.0 0.00 0.00 0.00 68 1015.6
20260507173030 56 0 0.0 0.0 0.00 0.00 0.00 68 1015.7
20260507171526 56 0 0.0 0.0 0.00 0.00 0.00 67 1015.5
20260507170042 57 0 0.0 1.0 0.00 0.00 0.00 67 1015.6
20260507164526 56 0 0.0 1.0 0.00 0.00 0.00 66 1015.7
20260507163027 57 0 0.0 4.0 0.00 0.00 0.00 65 1015.6
20260507161530 57 0 0.0 0.0 0.00 0.00 0.00 63 1015.6
20260507160029 58 0 0.0 0.0 0.00 0.00 0.00 60 1015.6
20260507154528 58 0 0.0 2.0 0.00 0.00 0.00 60 1015.6
20260507153027 59 0 0.0 0.0 0.00 0.00 0.00 57 1015.7
20260507151528 59 0 0.0 0.0 0.00 0.00 0.00 52 1015.7
20260507150028 59 0 0.0 0.0 0.00 0.00 0.00 53 1015.7
20260507144528 60 0 0.0 0.0 0.00 0.00 0.00 49 1015.7
20260507143025 60 0 0.0 6.0 0.00 0.00 0.00 46 1015.8
20260507141528 58 0 0.0 0.0 0.00 0.00 0.00 47 1015.9
20260507140035 59 0 0.0 3.0 0.00 0.00 0.00 48 1015.9
20260507134526 59 0 0.0 0.0 0.00 0.00 0.00 46 1016.0
20260507133028 60 0 0.0 1.0 0.00 0.00 0.00 50 1016.0
20260507131528 59 0 0.0 0.0 0.00 0.00 0.00 50 1016.2
20260507130031 58 0 0.0 4.0 0.00 0.00 0.00 47 1016.1
20260507124529 59 0 1.0 8.0 0.00 0.00 0.00 46 1016.2
20260507123028 58 0 0.0 0.0 0.00 0.00 0.00 49 1016.2
20260507121526 58 0 0.0 0.0 0.00 0.00 0.00 49 1016.1
20260507120028 58 0 0.0 0.0 0.00 0.00 0.00 50 1016.2
20260507114529 59 0 0.0 4.0 0.00 0.00 0.00 48 1016.2
20260507113028 59 82 0.0 5.0 0.00 0.00 0.00 49 1016.3
20260507111528 56 0 0.0 2.0 0.00 0.00 0.00 47 1016.3
20260507091537 54 0 0.0 1.0 0.00 0.00 0.00 70 1016.7
20260507083026 51 105 2.0 5.0 0.00 0.00 0.00 80 1016.9
20260507081528 51 0 0.0 3.0 0.00 0.00 0.00 82 1016.9
20260507080027 49 100 1.0 4.0 0.00 0.00 0.00 84 1017.0
20260507074529 47 0 0.0 5.0 0.00 0.00 0.00 87 1016.8
20260507073027 46 0 0.0 4.0 0.00 0.00 0.00 87 1016.8
20260507071529 44 69 0.0 2.0 0.00 0.00 0.00 86 1016.7
20260507070028 43 0 0.0 0.0 0.00 0.00 0.00 89 1016.6
20260507064525 42 0 0.0 1.0 0.00 0.00 0.00 91 1016.7
20260507063027 40 0 0.0 1.0 0.00 0.00 0.00 92 1016.7
20260507061529 39 0 0.0 0.0 0.00 0.00 0.00 93 1016.6
20260507060026 39 0 0.0 0.0 0.00 0.00 0.00 93 1016.5
20260507054525 39 0 0.0 0.0 0.00 0.00 0.00 93 1016.5
20260507053030 38 0 0.0 0.0 0.00 0.00 0.00 93 1016.3
20260507051526 38 0 0.0 0.0 0.00 0.00 0.00 93 1016.3
20260507050040 38 0 0.0 0.0 0.00 0.00 0.00 93 1016.3
20260507044526 37 0 0.0 0.0 0.00 0.00 0.00 92 1016.2
20260507043025 37 0 0.0 0.0 0.00 0.00 0.00 92 1016.1
20260507041528 37 0 0.0 0.0 0.00 0.00 0.00 92 1016.3
20260507040026 37 0 0.0 0.0 0.00 0.00 0.00 92 1016.2
20260507034529 38 0 0.0 0.0 0.00 0.00 0.00 92 1016.1
20260507033026 38 0 0.0 0.0 0.00 0.00 0.00 91 1016.2
20260507031529 38 0 0.0 0.0 0.00 0.00 0.00 91 1016.2
20260507030031 39 0 0.0 0.0 0.00 0.00 0.00 91 1016.2
20260507024533 39 0 0.0 0.0 0.00 0.00 0.00 91 1016.1
20260507023029 39 0 0.0 0.0 0.00 0.00 0.00 91 1016.1
20260507021533 39 0 0.0 0.0 0.00 0.00 0.00 91 1016.2
20260507020028 39 0 0.0 0.0 0.00 0.00 0.00 91 1016.1
20260507014531 39 0 0.0 0.0 0.00 0.00 0.00 90 1015.9
20260507013029 39 0 0.0 0.0 0.00 0.00 0.00 90 1015.9
20260507011526 40 0 0.0 0.0 0.00 0.00 0.00 89 1016.0
20260507010032 40 0 0.0 0.0 0.00 0.00 0.00 89 1016.0
20260507004527 40 0 0.0 0.0 0.00 0.00 0.00 88 1015.9
20260507003025 41 0 0.0 0.0 0.00 0.00 0.00 88 1015.9
20260507000032 42 0 0.0 0.0 0.00 0.00 0.00 86 1016.0
20260506234525 42 0 0.0 0.0 0.00 0.00 0.00 85 1016.0
20260506233026 42 0 0.0 0.0 0.00 0.00 0.00 84 1015.8
20260506231528 43 0 0.0 0.0 0.00 0.00 0.00 83 1015.7
20260506224526 43 0 0.0 0.0 0.00 0.00 0.00 81 1015.7
20260506223025 44 0 0.0 0.0 0.00 0.00 0.00 80 1015.6
20260506221530 45 0 0.0 0.0 0.00 0.00 0.00 78 1015.7
20260506220028 45 0 0.0 0.0 0.00 0.00 0.00 77 1015.6
20260506214526 46 0 0.0 0.0 0.00 0.00 0.00 74 1015.5
20260506213037 47 0 0.0 0.0 0.00 0.00 0.00 72 1015.5
20260506211539 48 0 0.0 0.0 0.00 0.00 0.00 70 1015.5
20260506210035 49 0 0.0 0.0 0.00 0.00 0.00 68 1015.4
20260506204533 50 0 0.0 0.0 0.00 0.00 0.00 66 1015.2